Location: Washington
(38.8950°N, 77.0370°W)
Time: 18:14:55
(UTC-04:00)

Tiangong 1 - Visible Passes

Search period start: 16 October 2017 00:00
Search period end: 26 October 2017 00:00
Orbit: 294 x 321 km, 42.8° (Epoch: 16 October)

Date Brightness Start Highest point End Pass type
(mag) Time Alt. Az. Time Alt. Az. Time Alt. Az.
16 Oct 0.8 18:53:04 10° WNW 18:55:47 76° SSW 18:58:28 10° ESE visible
16 Oct 4.0 20:29:35 10° SW 20:29:46 10° SW 20:29:46 10° SW visible
17 Oct 2.2 19:03:51 10° W 19:06:21 34° SSW 19:08:49 10° SE visible
18 Oct 3.5 19:14:57 10° WSW 19:16:43 16° SW 19:18:29 10° S visible
